Theta_e
306 307 308 308 308 308 307 307 307 308 308 308 308 307 307 311 310 312 311 309 311 312 312 316 316 315 314 314 314 315 318 318 320 320 320 320 319 318 316 317 317 318 319 319 318
309 307 308 308 308 307 307 309 309 310 309 310 310 309 312 310 313 312 309 311 313 313 315 315 315 315 314 313 313 315 316 317 318 318 318 316 316 316 316 316 317 317 317 317 317
311 308 308 308 308 307 309 310 310 310 311 312 311 308 314 314 314 313 312 312 311 312 315 314 314 314 315 315 315 314 316 316 315 315 315 316 316 315 316 317 316 317 317 316 317
311 308 307 310 309 309 311 311 310 310 311 312 311 306 312 313 318 313 312 311 312 313 314 314 314 315 315 316 315 316 315 315 316 315 315 316 315 315 315 316 315 316 315 316 316
311 308 307 310 311 311 311 311 309 311 311 310 308 310 313 314 312 312 312 312 313 314 313 314 314 314 316 315 314 315 315 314 314 314 314 314 314 315 314 314 314 315 315 315 316
313 307 307 310 312 312 312 311 310 311 312 311 312 312 314 314 312 313 312 313 314 314 313 313 314 313 314 314 314 314 314 314 314 314 315 315 315 314 313 312 313 314 316 316 316
314 307 307 310 312 313 313 310 310 311 312 312 312 313 314 313 313 313 313 313 313 313 314 313 314 314 314 315 314 315 316 316 316 315 315 315 316 316 315 314 315 315 315 316 317
314 307 307 310 312 313 311 308 310 310 312 312 312 315 314 312 312 314 314 314 313 314 314 314 313 314 315 315 316 316 316 316 317 316 316 316 318 318 317 317 317 316 316 316 316
313 308 307 308 312 310 309 309 311 310 311 312 313 317 315 313 314 313 313 314 314 314 314 313 313 314 314 316 316 317 318 317 317 317 317 317 318 318 317 317 317 318 317 316 316
312 309 308 310 311 310 309 309 311 311 311 311 311 315 313 313 312 312 312 312 314 314 314 314 314 316 316 316 317 317 316 317 317 317 317 317 318 318 317 317 317 317 318 318 317
311 309 309 311 310 311 313 311 314 315 314 314 313 313 313 313 312 313 313 313 314 314 316 315 316 316 316 316 316 316 316 317 317 317 317 318 319 319 318 318 318 318 318 318 318
312 310 310 310 310 312 314 314 312 313 317 313 313 313 312 312 313 314 313 314 314 316 315 316 317 316 315 315 315 315 317 317 317 317 318 318 320 320 320 319 318 318 318 318 318
313 310 311 310 313 313 313 313 313 313 318 315 313 313 312 312 312 313 312 312 313 314 315 315 316 315 315 315 316 316 317 318 317 317 318 320 321 320 319 319 319 319 319 318 318
313 311 310 311 313 311 313 311 313 314 320 315 314 312 312 312 313 312 312 311 312 312 312 312 313 314 315 315 316 317 316 316 317 319 320 319 320 320 320 320 320 319 319 319 319
313 311 311 311 312 313 312 313 314 316 324 314 313 311 312 313 312 313 312 312 313 312 312 313 313 314 314 314 314 315 316 318 318 319 319 319 320 320 321 320 320 318 318 318 318
313 312 313 312 313 311 312 314 315 322 322 314 313 313 314 313 313 312 312 311 311 313 315 315 313 314 315 316 316 317 317 316 317 318 321 320 321 320 320 320 319 319 318 317 316
308 312 313 312 313 312 312 315 322 320 314 315 314 314 314 314 313 313 313 312 313 314 315 315 314 313 315 317 317 316 317 321 322 321 324 320 320 320 320 319 319 319 318 318 317
305 313 312 312 313 311 312 317 320 315 315 314 314 314 314 313 313 312 312 313 313 314 314 315 317 314 314 314 314 314 315 320 322 321 321 319 320 320 318 317 317 317 318 317 318
308 313 313 313 313 311 314 318 318 315 314 314 314 314 314 313 313 312 312 312 312 314 314 315 315 314 314 314 314 318 318 317 324 320 321 319 319 318 318 318 319 319 318 319 319
310 314 314 313 311 311 315 313 315 312 313 314 315 314 315 314 312 312 312 312 312 313 314 313 315 313 313 314 315 315 315 320 321 322 321 319 319 319 318 317 318 319 319 319 319
311 317 314 310 309 314 316 315 313 312 312 313 314 314 314 313 312 312 312 312 312 313 313 313 313 315 315 316 316 316 316 316 318 320 322 321 319 319 317 317 318 318 318 318 318
312 318 313 310 315 313 315 312 309 312 312 312 312 312 313 313 314 313 313 312 313 312 313 313 315 317 315 315 315 315 316 317 323 320 321 323 322 318 317 317 317 317 316 316 316
312 313 313 313 316 316 315 314 311 312 313 312 312 312 312 313 316 312 312 310 311 311 312 312 315 317 317 318 316 317 317 317 317 319 322 323 320 318 317 317 316 316 316 316 316
311 315 313 312 312 315 315 316 315 311 311 311 312 311 312 314 313 314 313 311 311 310 309 311 313 314 318 318 317 319 318 316 318 319 320 320 318 318 317 317 316 315 316 314 314
311 314 312 314 313 314 314 313 314 313 311 312 314 313 313 314 314 314 312 311 310 310 312 315 316 315 315 316 316 316 316 315 316 317 318 318 318 316 315 316 316 314 312 312 313
311 310 311 311 312 313 311 315 313 313 313 313 315 313 313 315 314 315 313 312 311 311 312 312 315 315 316 316 315 315 314 314 314 314 314 314 315 315 315 314 314 312 311 311 311
309 309 310 311 312 313 314 312 313 312 312 312 313 313 312 313 310 310 310 309 310 313 313 310 312 316 316 314 315 317 317 315 314 314 313 316 316 314 314 313 312 310 310 310 310
Wind_Speed
25 21 17 15 13 12 12 11 10 9 9 8 7 7 6 7 11 12 11 11 12 9 8 4 4 4 4 3 2 4 7 11 13 10 11 3 10 5 4 15 16 13 14 15 12
26 22 17 15 13 12 11 11 11 11 10 9 8 7 11 17 17 15 14 11 10 9 6 3 4 2 3 3 2 6 7 7 7 5 9 10 14 14 11 12 13 17 14 10 10
26 20 16 14 13 11 11 12 12 11 11 10 8 8 16 17 13 10 9 8 6 6 3 2 1 1 2 3 1 2 7 2 4 4 8 12 16 16 14 14 12 11 16 14 13
28 19 14 13 12 10 10 12 12 9 13 12 9 11 12 5 3 3 7 8 7 8 4 4 2 3 2 2 1 9 3 6 4 9 11 14 17 20 21 19 15 14 17 19 15
30 21 13 11 11 10 10 12 12 9 12 13 13 13 14 12 10 6 7 9 8 7 7 5 7 3 2 2 5 9 2 7 10 15 17 16 20 22 26 23 21 19 17 19 19
31 22 13 10 10 10 11 13 12 9 11 14 14 14 8 15 7 6 6 5 5 5 6 7 6 5 2 5 8 3 9 13 13 14 11 13 15 15 19 22 23 18 19 19 22
29 22 13 9 9 10 11 13 10 7 10 15 17 17 14 9 6 5 5 1 0 2 4 3 5 6 6 7 2 10 13 11 8 8 12 11 18 22 18 16 17 22 20 19 20
27 19 13 9 9 10 12 11 7 7 8 9 12 12 9 7 7 5 3 3 3 4 4 6 5 8 6 6 12 11 10 10 5 7 9 8 19 18 8 15 19 23 24 22 20
24 17 13 9 9 11 13 7 7 8 9 8 6 2 8 5 5 5 4 3 5 5 5 7 8 11 10 10 11 11 9 14 13 7 14 12 19 14 9 19 24 24 24 24 21
22 15 12 8 9 12 12 8 8 8 8 8 5 3 6 7 5 6 6 6 6 8 11 8 8 11 11 9 11 16 17 16 17 12 16 20 24 22 25 25 26 25 25 24 24
19 13 10 8 8 12 11 7 1 3 5 3 4 5 3 7 6 8 7 6 7 10 11 8 10 14 16 13 15 15 18 20 19 16 17 20 24 25 25 27 26 28 28 27 26
18 11 8 8 9 10 12 5 4 0 3 4 4 2 3 8 9 7 9 6 8 12 15 11 15 15 13 14 16 18 20 21 19 16 16 23 28 25 23 26 30 28 28 27 26
16 8 7 4 9 7 7 6 3 2 4 5 3 0 5 9 4 6 10 11 11 13 13 16 19 21 19 20 19 19 19 20 20 20 20 22 24 17 4 9 15 18 21 24 26
15 5 5 3 4 7 3 12 1 2 5 5 4 2 5 6 4 2 7 7 11 12 16 12 7 11 15 18 17 20 16 18 18 16 13 15 11 18 12 12 8 8 12 15 21
14 2 5 6 3 5 9 10 4 2 3 3 3 1 6 5 8 4 7 8 11 15 9 11 17 14 17 18 16 19 9 14 16 18 20 19 12 8 6 8 5 5 2 10 12
13 4 3 5 7 10 9 2 3 5 1 2 1 5 8 8 5 7 9 10 14 8 7 14 17 12 9 8 5 6 12 18 21 16 13 15 14 8 4 7 3 10 7 4 3
12 2 0 4 6 12 7 1 5 4 3 2 4 8 13 7 7 6 12 11 5 7 8 14 8 5 7 10 9 10 12 8 5 6 9 5 9 13 12 15 10 6 7 7 9
14 5 2 5 13 6 3 5 6 3 3 3 7 14 6 7 6 8 10 11 4 7 12 7 7 4 1 11 18 19 13 6 6 9 13 11 8 1 4 8 8 10 14 8 4
12 4 2 9 11 6 6 4 5 3 3 7 13 5 2 5 8 7 9 6 2 3 7 11 7 17 21 13 8 2 6 9 6 17 10 9 12 12 8 5 6 6 2 2 1
11 5 4 11 4 4 5 3 3 3 6 6 6 2 9 11 8 8 8 1 4 2 4 8 19 9 3 8 13 15 7 7 5 5 8 8 12 9 6 1 3 4 2 1 3
7 2 6 7 4 3 2 3 4 3 7 4 7 10 10 9 10 9 6 6 3 1 8 14 7 9 16 13 10 4 11 8 8 8 7 13 4 7 3 8 5 7 2 7 10
6 2 9 4 4 2 2 4 5 3 4 6 7 7 10 11 11 8 7 4 1 10 13 6 7 13 21 22 16 16 17 15 8 10 11 14 15 11 5 5 1 4 9 15 20
8 4 7 5 2 3 3 3 3 5 3 4 5 2 9 9 6 8 10 2 7 10 4 7 4 8 9 5 1 6 10 14 16 16 17 17 14 4 6 8 14 15 17 19 22
7 3 3 6 4 4 5 1 4 3 9 5 9 9 7 12 12 10 13 8 4 13 20 13 7 15 14 19 18 18 20 20 14 8 20 22 29 24 22 19 17 21 15 22 22
7 3 2 3 1 5 3 2 6 4 3 5 5 6 10 8 16 19 12 13 19 19 8 4 5 13 20 23 24 25 26 24 23 24 18 25 27 27 25 26 17 14 19 21 23
6 5 4 12 6 6 1 2 6 5 5 8 12 11 15 17 18 25 22 18 11 8 2 1 5 9 13 23 24 23 25 23 22 24 26 26 30 23 20 11 16 22 21 21 27
4 4 5 3 4 5 3 3 5 10 8 8 12 17 19 18 18 26 30 30 24 18 5 4 3 4 16 15 19 17 10 8 14 16 14 16 21 21 21 21 19 23 23 30 36
Wind_Direction
16 18 21 23 32 46 55 57 53 46 39 34 27 26 50 76 95 77 74 82 75 67 70 54 78 105 114 131 183 229 249 249 247 233 245 251 281 244 259 276 279 272 274 292 310
14 15 20 26 37 50 59 62 51 42 39 28 25 54 101 102 93 83 79 69 63 58 50 42 83 123 125 135 160 253 255 273 354 327 271 288 289 291 289 259 267 278 268 271 297
12 13 20 29 38 49 59 53 42 49 35 31 40 80 127 116 105 62 63 47 35 49 33 57 76 208 135 189 168 192 277 81 229 281 276 294 289 286 279 271 261 272 285 282 287
15 14 21 31 42 54 58 43 36 46 34 42 59 96 145 117 63 75 52 34 47 65 31 25 299 230 256 225 285 255 222 249 254 275 267 269 283 278 276 276 276 264 281 279 275
15 16 23 34 44 51 45 31 28 41 43 53 84 99 91 91 88 85 62 63 56 58 51 35 32 325 307 298 270 252 200 255 266 278 274 272 262 265 271 274 269 265 265 269 273
13 17 28 37 43 43 32 19 23 49 65 76 90 98 83 85 101 73 63 57 60 45 36 36 21 356 311 299 281 350 285 279 272 271 282 276 270 251 260 262 267 269 266 264 269
13 19 35 44 41 32 20 11 24 68 87 95 91 86 76 84 83 44 27 332 301 4 349 349 342 321 325 289 309 286 273 281 236 241 286 289 269 244 252 260 262 273 264 263 263
10 20 32 40 37 25 12 7 48 81 99 106 96 81 86 81 65 31 335 330 308 278 281 293 297 296 276 300 259 268 269 261 163 297 285 247 278 292 211 255 265 271 269 264 261
10 20 23 34 36 25 10 32 87 74 99 123 92 82 88 40 24 340 312 290 275 270 269 276 279 284 266 259 280 203 282 297 292 239 288 258 280 290 254 267 276 269 267 262 261
11 18 22 45 42 24 22 72 85 92 98 87 92 194 63 9 358 344 333 291 286 284 265 247 253 261 252 253 286 316 300 298 295 305 288 278 274 277 275 267 264 265 263 260 256
10 17 33 58 43 35 39 61 64 98 53 49 59 83 43 358 29 6 344 312 281 270 270 291 274 274 295 300 292 294 287 286 288 296 291 282 282 281 275 266 263 259 254 255 251
5 15 40 58 45 47 47 74 56 210 131 84 117 105 18 355 312 351 349 318 312 295 303 262 257 280 302 285 279 280 282 281 289 292 299 294 284 285 274 265 262 259 256 250 251
3 11 31 67 45 43 55 37 19 132 246 155 144 24 5 335 329 336 346 325 302 298 296 292 285 293 284 279 277 273 279 293 298 302 282 276 288 269 214 245 253 257 255 253 249
2 12 31 37 37 3 355 339 308 173 236 140 192 181 333 347 198 287 348 329 311 311 315 288 306 294 282 279 283 283 291 304 291 285 288 322 289 293 300 283 284 270 247 246 239
2 90 52 40 4 352 321 337 162 178 244 115 147 195 328 335 318 152 328 329 313 317 289 273 313 305 299 293 296 285 313 286 287 281 285 274 258 291 219 279 113 60 327 247 246
1 194 7 9 4 337 333 24 146 227 162 159 222 304 307 328 279 295 308 314 304 285 273 284 295 293 297 300 295 315 272 291 271 262 268 269 239 276 271 1 306 328 279 243 287
354 183 344 5 324 325 330 193 244 268 144 127 314 319 319 312 299 314 317 317 324 323 326 318 309 314 276 285 210 246 303 304 283 185 251 93 290 267 293 299 309 306 309 289 247
353 213 252 333 348 344 325 243 257 55 339 1 307 308 297 359 331 313 297 317 170 312 312 344 318 355 18 304 301 291 286 263 302 292 313 308 263 360 294 319 307 297 277 272 267
359 218 316 324 333 339 274 253 355 1 354 320 305 268 232 275 317 314 304 305 298 321 334 317 293 311 287 303 254 283 228 271 278 258 262 238 250 236 246 226 84 21 53 162 254
9 135 354 333 332 334 264 347 318 330 322 303 297 310 317 330 315 326 307 138 294 262 338 309 309 301 337 293 256 247 295 250 228 266 267 268 290 266 169 82 102 99 91 196 290
40 193 346 358 13 271 316 354 312 331 310 294 299 293 302 328 303 305 268 292 256 271 297 300 269 274 297 275 271 238 246 245 272 271 270 290 298 54 285 294 321 310 272 301 306
17 235 342 10 253 4 353 342 332 294 279 282 280 280 288 317 297 288 256 274 153 308 305 342 294 287 283 284 276 264 250 250 249 255 251 279 276 302 309 292 13 262 273 295 303
350 317 344 17 350 352 334 287 273 295 315 305 284 262 310 301 306 268 283 302 277 292 311 357 259 300 291 151 115 264 247 251 256 265 254 268 264 225 228 227 273 310 304 306 297
344 312 23 47 58 337 342 291 296 258 283 277 285 299 294 289 269 271 281 300 258 286 299 279 214 237 259 286 302 276 266 264 249 250 261 253 273 271 283 294 310 309 312 303 301
0 37 353 314 66 324 294 295 295 307 235 284 262 254 310 297 300 282 280 292 292 289 278 219 250 242 250 267 278 279 280 276 267 263 256 279 283 286 290 287 303 309 299 292 288
336 336 305 290 289 272 135 226 286 297 259 290 269 308 305 288 282 288 290 290 293 278 275 350 270 275 268 263 260 278 281 276 272 272 263 265 269 271 271 306 290 297 287 287 284
345 309 301 266 253 275 276 290 279 310 280 283 278 303 295 290 300 295 286 281 273 271 231 241 254 271 288 305 301 289 297 254 269 280 289 281 291 306 309 309 294 288 284 289 287